Location: Hohe Wand Kleine Kanzel
(47.8330°N, 16.0170°E)
Time: 05:26:16
(UTC+02:00)

Vanguard 3 - Visible Passes

Search period start: 01 August 2021 00:00
Search period end: 11 August 2021 00:00
Orbit: 508 x 3261 km, 33.4° (Epoch: 31 July)

Date Brightness Start Highest point End Pass type
(mag) Time Alt. Az. Time Alt. Az. Time Alt. Az.
01 Aug 10.7 01:55:07 10° W 02:05:00 18° SW 02:05:00 18° SW visible
01 Aug 10.3 22:19:39 10° W 22:37:01 46° SSW 22:49:33 21° SE visible
02 Aug 10.4 00:35:55 10° W 00:50:43 28° SW 00:54:01 26° SSW visible
02 Aug 10.3 21:04:06 10° WSW 21:20:33 50° S 21:38:38 10° ESE visible
02 Aug 10.3 23:18:36 10° W 23:35:10 37° SSW 23:43:06 27° S visible
03 Aug 10.9 01:38:08 10° W 01:47:33 16° SW 01:47:33 16° SW visible
03 Aug 10.4 22:02:24 10° W 22:19:03 44° SSW 22:32:13 20° SE visible
04 Aug 10.6 00:18:36 10° W 00:32:45 26° SW 00:36:41 24° SSW visible
04 Aug 10.4 20:47:04 10° WSW 21:02:40 49° S 21:21:00 10° ESE visible
04 Aug 10.5 23:01:21 10° W 23:17:11 35° SSW 23:25:51 25° S visible
05 Aug 11.0 01:21:38 10° WSW 01:29:45 14° SW 01:30:20 14° SW visible
05 Aug 10.5 21:45:20 10° W 22:01:07 42° SSW 22:15:05 18° SE visible
06 Aug 10.7 00:01:32 10° W 00:14:47 23° SW 00:19:33 21° SSW visible
06 Aug 10.4 20:30:11 10° WSW 20:44:51 47° S 21:03:05 10° SE visible
06 Aug 10.6 22:44:17 10° W 22:59:13 32° SSW 23:08:50 22° S visible
07 Aug 11.1 01:06:01 10° WSW 01:11:50 12° SW 01:13:19 12° SW visible
07 Aug 10.5 21:28:25 10° W 21:43:14 39° SSW 21:58:10 15° SE visible
07 Aug 10.9 23:44:45 10° W 23:56:50 21° SW 00:02:39 18° SSW visible
08 Aug 10.8 22:27:26 10° W 22:41:18 29° SSW 22:52:02 18° S visible
09 Aug 10.6 21:11:40 10° W 21:25:26 36° SSW 21:41:29 11° SSE visible
09 Aug 11.0 23:28:21 10° WSW 23:38:56 18° SW 23:45:59 15° SSW visible
10 Aug 10.9 22:10:50 10° W 22:23:28 26° SSW 22:35:29 14° S visible
